Lake Wylie Weather Center

Moon Phase Calendar



Lake Wylie Water Level
Online Cameras

 


      

Current Conditions in Lake Wylie
5/18/2021 12:58:41 PM

73°F
Feels Like 73
Clouds
Humidity
76%
Pressure
30.36"
Wind
4.2 mph (E)
Dew Point
65°F
UV Index
7/10 (High)
Visibility
6 mi

Hourly Forecast

Date & Time Tue, May 18
12:00 PM
Tue, May 18
1:00 PM
Tue, May 18
2:00 PM
Tue, May 18
3:00 PM
Tue, May 18
4:00 PM
Tue, May 18
5:00 PM
Tue, May 18
6:00 PM
Tue, May 18
7:00 PM
Tue, May 18
8:00 PM
Tue, May 18
9:00 PM
Tue, May 18
10:00 PM
Tue, May 18
11:00 PM
Wed, May 19
12:00 AM
Wed, May 19
1:00 AM
Wed, May 19
2:00 AM
Wed, May 19
3:00 AM
Wed, May 19
4:00 AM
Wed, May 19
5:00 AM
Wed, May 19
6:00 AM
Wed, May 19
7:00 AM
Wed, May 19
8:00 AM
Wed, May 19
9:00 AM
Wed, May 19
10:00 AM
Wed, May 19
11:00 AM
Wed, May 19
12:00 PM
Wed, May 19
1:00 PM
Wed, May 19
2:00 PM
Wed, May 19
3:00 PM
Wed, May 19
4:00 PM
Wed, May 19
5:00 PM
Wed, May 19
6:00 PM
Wed, May 19
7:00 PM
Wed, May 19
8:00 PM
Wed, May 19
9:00 PM
Wed, May 19
10:00 PM
Wed, May 19
11:00 PM
Thu, May 20
12:00 AM
Thu, May 20
1:00 AM
Thu, May 20
2:00 AM
Thu, May 20
3:00 AM
Thu, May 20
4:00 AM
Thu, May 20
5:00 AM
Thu, May 20
6:00 AM
Thu, May 20
7:00 AM
Thu, May 20
8:00 AM
Thu, May 20
9:00 AM
Thu, May 20
10:00 AM
Thu, May 20
11:00 AM
Condition
Clouds

Clouds

Clouds

Clouds

Clouds

Clouds

Clouds

Clouds

Clouds

Clouds

Clouds

Clouds

Clouds

Clouds

Clouds

Clouds

Clouds

Clouds

Clouds

Clouds

Clouds

Clouds

Clouds

Clouds

Clouds

Clouds

Clouds

Clouds

Clouds

Clouds

Clouds

Clouds

Clouds

Clouds

Clouds

Clouds

Clouds

Clouds

Clouds

Clouds

Clouds

Clouds

Clouds

Clouds

Clouds

Clouds

Clouds

Clouds
Temperature 72°F73°F72°F72°F72°F71°F70°F68°F66°F65°F64°F63°F61°F61°F60°F59°F58°F57°F57°F58°F62°F67°F71°F74°F76°F78°F80°F81°F81°F81°F80°F76°F70°F66°F64°F62°F60°F60°F59°F58°F57°F56°F56°F57°F62°F68°F73°F77°F
Feels Like 72°F73°F72°F72°F72°F71°F70°F68°F66°F65°F64°F63°F61°F61°F60°F58°F58°F57°F56°F58°F62°F67°F70°F73°F76°F77°F80°F80°F80°F80°F80°F76°F69°F65°F63°F61°F60°F59°F58°F57°F57°F56°F56°F57°F62°F67°F72°F76°F
Cloudiness 100%100%100%100%100%100%100%100%100%100%100%100%100%100%100%91%92%90%92%93%82%23%45%60%55%48%44%19%17%20%24%28%25%20%37%31%36%37%43%61%47%59%47%56%62%39%28%50%
Visibility 6 mi6 mi6 mi6 mi6 mi6 mi6 mi6 mi6 mi6 mi6 mi6 mi6 mi6 mi6 mi6 mi6 mi6 mi6 mi6 mi6 mi6 mi6 mi6 mi6 mi6 mi6 mi6 mi6 mi6 mi6 mi6 mi6 mi6 mi6 mi6 mi6 mi6 mi6 mi6 mi6 mi6 mi6 mi6 mi6 mi6 mi6 mi6 mi
Precipitation 0%0%5%12%12%12%8%8%8%0%0%0%0%0%0%0%0%0%0%0%0%0%0%0%0%0%0%0%0%0%0%0%0%0%0%0%0%0%0%0%0%0%0%0%0%0%0%0%
Humidity 74%76%73%70%67%65%69%74%77%79%82%85%87%88%88%90%91%90%91%87%75%64%55%48%43%40%37%35%33%32%34%46%54%57%61%65%72%79%83%88%91%92%93%90%79%66%57%50%
Dew Point 63°F65°F63°F62°F60°F59°F59°F60°F59°F58°F58°F58°F57°F57°F56°F55°F55°F54°F54°F54°F54°F54°F54°F53°F52°F52°F51°F50°F49°F48°F48°F54°F52°F50°F50°F50°F51°F53°F53°F54°F54°F54°F54°F54°F55°F56°F56°F56°F
Pressure 30.36"30.36"30.36"30.36"30.33"30.3"30.3"30.3"30.3"30.3"30.33"30.33"30.33"30.36"30.33"30.33"30.33"30.33"30.36"30.39"30.39"30.39"30.39"30.39"30.39"30.36"30.33"30.33"30.3"30.3"30.3"30.3"30.3"30.33"30.33"30.33"30.33"30.36"30.36"30.36"30.36"30.36"30.39"30.42"30.42"30.42"30.42"30.42"
Wind Speed 2.9 mph4.2 mph3.8 mph3 mph1.8 mph1.9 mph2.1 mph2.8 mph3.2 mph3.7 mph4.2 mph3.9 mph2.4 mph3 mph3.4 mph3.1 mph2.5 mph3.1 mph2.4 mph1.7 mph2.8 mph3.1 mph4.2 mph5.4 mph6.2 mph6.6 mph6.7 mph7 mph7 mph6.9 mph6 mph4.3 mph4.1 mph3.6 mph3.6 mph3.6 mph3.9 mph3.8 mph3.7 mph3.2 mph3.4 mph3.1 mph3 mph2.6 mph2.5 mph2.5 mph1.2 mph1.1 mph
Wind
Direction
81°
E
85°
E
86°
E
82°
E
70°
ENE
40°
NE
356°
N
353°
N
18°
NNE
40°
NE
62°
ENE
81°
E
74°
ENE
86°
E
92°
E
102°
ESE
103°
ESE
89°
E
87°
E
61°
ENE
81°
E
87°
E
103°
ESE
108°
ESE
115°
ESE
116°
ESE
116°
ESE
119°
ESE
123°
ESE
127°
SE
125°
SE
118°
ESE
112°
ESE
128°
SE
159°
SSE
174°
S
163°
SSE
180°
S
197°
SSW
202°
SSW
221°
SW
242°
WSW
262°
W
273°
W
282°
WNW
321°
NW
340°
NNW
83°
E

Daily Forecast

Date High Low Precip. Humidity
Today
May 18

Clouds
73 °F
59 °F
12%
76%
Wednesday
May 19

Clouds
81 °F
57 °F
0%
40%
Thursday
May 20

Clouds
82 °F
56 °F
0%
32%
Friday
May 21

Clouds
88 °F
59 °F
0%
31%
Saturday
May 22

Rain
85 °F
61 °F
27%
38%
Sunday
May 23

Clouds
86 °F
65 °F
22%
45%
Monday
May 24

Clouds
88 °F
68 °F
0%
55%
Tuesday
May 25

Rain
91 °F
67 °F
33%
41%
Wednesday
May 26

Rain
93 °F
70 °F
59%
42%
Thursday
May 27

Rain
93 °F
70 °F
97%
35%
Friday
May 28

Rain
75 °F
66 °F
100%
89%
Saturday
May 29

Rain
70 °F
63 °F
100%
90%
Sunday
May 30

Rain
89 °F
63 °F
45%
53%
Monday
May 31

Rain
93 °F
71 °F
74%
47%
Tuesday
Jun 1

Rain
90 °F
70 °F
82%
49%
Wednesday
Jun 2

Rain
94 °F
69 °F
89%
43%

Temperature 8-14 Day Outlook



Precipitation 8-14 Day Outlook




Quick Links
Lake Wylie News
Lake Wylie Photos
Lake Wylie Videos




About Us
Contact Us
Site Map
Search Site
Advertise With Us
   
Wylie.USLakes.info
THE LAKE WYLIE WEBSITE

Copyright 2021, Lakes Online
Privacy    |    Legal